Time,TemperatureF,DewpointF,PressureIn,WindDirection,WindDirectionDegrees,WindSpeedMPH,WindSpeedGustMPH,Humidity,HourlyPrecipIn,Conditions,Clouds,dailyrainin,SoftwareType,DateUTC
2013-05-31 00:03:00,69.2,67.0,30.20,SE,130,0.0,0.0,91,0.00,,,0.00,weatherlink.com 1.10,2013-05-31 04:03:00,
2013-05-31 00:18:00,68.7,66.0,30.20,SE,130,0.0,0.0,92,0.00,,,0.00,weatherlink.com 1.10,2013-05-31 04:18:00,
2013-05-31 00:33:00,68.4,66.0,30.21,SE,130,0.0,0.0,92,0.00,,,0.00,weatherlink.com 1.10,2013-05-31 04:33:00,
2013-05-31 00:48:00,68.2,66.0,30.21,SSE,149,0.0,1.0,92,0.00,,,0.00,weatherlink.com 1.10,2013-05-31 04:48:00,
2013-05-31 01:03:00,68.6,66.0,30.21,SSE,149,0.0,1.0,90,0.00,,,0.00,weatherlink.com 1.10,2013-05-31 05:03:00,
2013-05-31 01:18:00,68.7,66.0,30.21,SSE,149,0.0,0.0,90,0.00,,,0.00,weatherlink.com 1.10,2013-05-31 05:18:00,
2013-05-31 01:33:00,68.9,66.0,30.21,SSE,150,0.0,1.0,89,0.00,,,0.00,weatherlink.com 1.10,2013-05-31 05:33:00,
2013-05-31 01:48:00,69.4,66.0,30.20,SSE,150,0.0,1.0,88,0.00,,,0.00,weatherlink.com 1.10,2013-05-31 05:48:00,
2013-05-31 02:03:00,69.2,66.0,30.21,SSE,149,0.0,0.0,88,0.00,,,0.00,weatherlink.com 1.10,2013-05-31 06:03:00,
2013-05-31 02:18:00,68.5,65.0,30.21,SSE,150,0.0,0.0,89,0.00,,,0.00,weatherlink.com 1.10,2013-05-31 06:18:00,
2013-05-31 02:33:00,67.8,65.0,30.21,SSE,150,0.0,0.0,91,0.00,,,0.00,weatherlink.com 1.10,2013-05-31 06:33:00,
2013-05-31 02:48:00,67.5,65.0,30.21,SE,125,0.0,1.0,92,0.00,,,0.00,weatherlink.com 1.10,2013-05-31 06:48:00,
2013-05-31 03:03:00,67.3,65.0,30.21,SW,233,0.0,1.0,93,0.00,,,0.00,weatherlink.com 1.10,2013-05-31 07:03:00,
2013-05-31 03:18:00,67.2,65.0,30.20,WSW,238,0.0,1.0,93,0.00,,,0.00,weatherlink.com 1.10,2013-05-31 07:18:00,
2013-05-31 03:33:00,66.8,65.0,30.20,WSW,238,0.0,1.0,94,0.00,,,0.00,weatherlink.com 1.10,2013-05-31 07:33:00,
2013-05-31 03:48:00,66.5,65.0,30.21,SW,228,1.0,1.0,95,0.00,,,0.00,weatherlink.com 1.10,2013-05-31 07:48:00,
2013-05-31 04:03:00,66.0,65.0,30.21,SW,228,0.0,0.0,95,0.00,,,0.00,weatherlink.com 1.10,2013-05-31 08:03:00,
2013-05-31 04:18:00,65.8,65.0,30.21,SW,228,0.0,0.0,96,0.00,,,0.00,weatherlink.com 1.10,2013-05-31 08:18:00,
2013-05-31 04:33:00,65.5,64.0,30.20,South,186,0.0,1.0,96,0.00,,,0.00,weatherlink.com 1.10,2013-05-31 08:33:00,
2013-05-31 04:48:00,65.3,64.0,30.20,South,186,0.0,0.0,96,0.00,,,0.00,weatherlink.com 1.10,2013-05-31 08:48:00,
2013-05-31 05:03:00,64.9,64.0,30.21,South,186,0.0,0.0,96,0.00,,,0.00,weatherlink.com 1.10,2013-05-31 09:03:00,
2013-05-31 05:18:00,64.6,64.0,30.20,South,186,0.0,0.0,96,0.00,,,0.00,weatherlink.com 1.10,2013-05-31 09:18:00,
2013-05-31 05:33:00,64.3,63.0,30.20,South,186,0.0,0.0,96,0.00,,,0.00,weatherlink.com 1.10,2013-05-31 09:33:00,
2013-05-31 05:48:00,64.2,63.0,30.21,South,186,0.0,0.0,97,0.00,,,0.00,weatherlink.com 1.10,2013-05-31 09:48:00,
2013-05-31 06:03:00,63.9,63.0,30.21,South,186,0.0,0.0,97,0.00,,,0.00,weatherlink.com 1.10,2013-05-31 10:03:00,
2013-05-31 06:18:00,63.5,63.0,30.22,South,186,0.0,0.0,97,0.00,,,0.00,weatherlink.com 1.10,2013-05-31 10:18:00,
2013-05-31 06:33:00,63.3,63.0,30.22,South,186,0.0,0.0,97,0.00,,,0.00,weatherlink.com 1.10,2013-05-31 10:33:00,
2013-05-31 06:48:00,63.2,62.0,30.22,South,186,0.0,0.0,97,0.00,,,0.00,weatherlink.com 1.10,2013-05-31 10:48:00,
2013-05-31 07:03:00,63.4,63.0,30.22,South,186,0.0,0.0,97,0.00,,,0.00,weatherlink.com 1.10,2013-05-31 11:03:00,
2013-05-31 07:18:00,64.9,64.0,30.22,South,186,0.0,0.0,98,0.00,,,0.00,weatherlink.com 1.10,2013-05-31 11:18:00,
2013-05-31 07:33:00,66.3,66.0,30.22,South,186,0.0,1.0,98,0.00,,,0.00,weatherlink.com 1.10,2013-05-31 11:33:00,
2013-05-31 07:48:00,67.6,67.0,30.22,South,186,0.0,1.0,98,0.00,,,0.00,weatherlink.com 1.10,2013-05-31 11:48:00,
2013-05-31 08:03:00,68.7,68.0,30.22,WSW,239,0.0,4.0,96,0.00,,,0.00,weatherlink.com 1.10,2013-05-31 12:03:00,
2013-05-31 08:19:00,69.8,68.0,30.23,West,266,0.0,2.0,94,0.00,,,0.00,weatherlink.com 1.10,2013-05-31 12:19:00,
2013-05-31 08:34:00,70.6,68.0,30.23,SW,222,0.0,2.0,92,0.00,,,0.00,weatherlink.com 1.10,2013-05-31 12:34:00,
2013-05-31 08:49:00,71.9,69.0,30.23,WSW,245,0.0,1.0,90,0.00,,,0.00,weatherlink.com 1.10,2013-05-31 12:49:00,
2013-05-31 09:04:00,73.2,69.0,30.23,SW,233,1.0,3.0,86,0.00,,,0.00,weatherlink.com 1.10,2013-05-31 13:04:00,
2013-05-31 09:19:00,74.0,69.0,30.23,SSW,195,0.0,2.0,84,0.00,,,0.00,weatherlink.com 1.10,2013-05-31 13:19:00,
2013-05-31 09:34:00,73.8,69.0,30.23,WSW,257,3.0,5.0,84,0.00,,,0.00,weatherlink.com 1.10,2013-05-31 13:34:00,
2013-05-31 09:49:00,74.3,68.0,30.23,SSW,212,1.0,3.0,81,0.00,,,0.00,weatherlink.com 1.10,2013-05-31 13:49:00,
2013-05-31 10:04:00,75.4,69.0,30.23,WNW,298,1.0,4.0,80,0.00,,,0.00,weatherlink.com 1.10,2013-05-31 14:04:00,
2013-05-31 10:19:00,76.2,69.0,30.23,SSW,210,1.0,9.0,77,0.00,,,0.00,weatherlink.com 1.10,2013-05-31 14:19:00,
2013-05-31 10:34:00,76.8,69.0,30.23,SE,145,1.0,5.0,78,0.00,,,0.00,weatherlink.com 1.10,2013-05-31 14:34:00,
2013-05-31 10:49:00,78.0,70.0,30.23,West,277,1.0,5.0,75,0.00,,,0.00,weatherlink.com 1.10,2013-05-31 14:49:00,
2013-05-31 11:04:00,79.5,70.0,30.23,SE,142,0.0,4.0,73,0.00,,,0.00,weatherlink.com 1.10,2013-05-31 15:04:00,
2013-05-31 11:19:00,79.7,68.0,30.23,SSW,197,2.0,5.0,68,0.00,,,0.00,weatherlink.com 1.10,2013-05-31 15:19:00,
2013-05-31 11:34:00,79.2,68.0,30.23,SW,233,1.0,4.0,69,0.00,,,0.00,weatherlink.com 1.10,2013-05-31 15:34:00,
2013-05-31 11:49:00,80.5,69.0,30.22,SW,218,1.0,3.0,67,0.00,,,0.00,weatherlink.com 1.10,2013-05-31 15:49:00,
2013-05-31 12:04:00,82.7,69.0,30.22,SSW,210,1.0,2.0,63,0.00,,,0.00,weatherlink.com 1.10,2013-05-31 16:04:00,
2013-05-31 12:19:00,83.8,67.0,30.22,SSE,153,0.0,3.0,58,0.00,,,0.00,weatherlink.com 1.10,2013-05-31 16:19:00,
2013-05-31 12:34:00,84.5,70.0,30.22,NNW,339,0.0,3.0,62,0.00,,,0.00,weatherlink.com 1.10,2013-05-31 16:34:00,
2013-05-31 12:49:00,85.4,69.0,30.21,SW,222,0.0,4.0,59,0.00,,,0.00,weatherlink.com 1.10,2013-05-31 16:49:00,
2013-05-31 13:04:00,85.9,67.0,30.20,WNW,297,3.0,4.0,53,0.00,,,0.00,weatherlink.com 1.10,2013-05-31 17:04:00,
2013-05-31 13:20:00,85.3,67.0,30.20,ESE,121,1.0,3.0,55,0.00,,,0.00,weatherlink.com 1.10,2013-05-31 17:20:00,
2013-05-31 13:35:00,87.2,69.0,30.19,SW,233,3.0,4.0,54,0.00,,,0.00,weatherlink.com 1.10,2013-05-31 17:35:00,
2013-05-31 13:50:00,85.7,67.0,30.18,SE,125,0.0,3.0,53,0.00,,,0.00,weatherlink.com 1.10,2013-05-31 17:50:00,
2013-05-31 14:05:00,87.3,68.0,30.18,SSW,211,1.0,4.0,53,0.00,,,0.00,weatherlink.com 1.10,2013-05-31 18:05:00,
2013-05-31 14:20:00,87.8,69.0,30.17,SW,219,0.0,5.0,53,0.00,,,0.00,weatherlink.com 1.10,2013-05-31 18:20:00,
2013-05-31 14:35:00,87.9,68.0,30.17,WSW,253,0.0,6.0,52,0.00,,,0.00,weatherlink.com 1.10,2013-05-31 18:35:00,
2013-05-31 14:50:00,88.7,68.0,30.16,SW,217,2.0,8.0,50,0.00,,,0.00,weatherlink.com 1.10,2013-05-31 18:50:00,
2013-05-31 15:05:00,89.1,68.0,30.16,SSW,212,2.0,6.0,50,0.00,,,0.00,weatherlink.com 1.10,2013-05-31 19:05:00,
2013-05-31 15:20:00,88.0,67.0,30.15,ESE,120,0.0,2.0,50,0.00,,,0.00,weatherlink.com 1.10,2013-05-31 19:20:00,
2013-05-31 15:35:00,88.3,67.0,30.14,SW,233,1.0,3.0,49,0.00,,,0.00,weatherlink.com 1.10,2013-05-31 19:35:00,
2013-05-31 15:50:00,88.3,67.0,30.14,SSE,153,1.0,3.0,50,0.00,,,0.00,weatherlink.com 1.10,2013-05-31 19:50:00,
2013-05-31 16:05:00,88.3,68.0,30.13,SSW,213,0.0,2.0,51,0.00,,,0.00,weatherlink.com 1.10,2013-05-31 20:05:00,
2013-05-31 16:20:00,86.1,69.0,30.13,SSW,195,0.0,0.0,57,0.00,,,0.00,weatherlink.com 1.10,2013-05-31 20:20:00,
2013-05-31 16:35:00,86.3,70.0,30.12,NE,53,0.0,2.0,58,0.00,,,0.00,weatherlink.com 1.10,2013-05-31 20:35:00,
2013-05-31 16:50:00,86.5,69.0,30.12,NE,53,1.0,1.0,56,0.00,,,0.00,weatherlink.com 1.10,2013-05-31 20:50:00,
2013-05-31 17:05:00,87.6,69.0,30.11,SSE,149,0.0,4.0,54,0.00,,,0.00,weatherlink.com 1.10,2013-05-31 21:05:00,
2013-05-31 17:20:00,87.8,67.0,30.11,ESE,107,1.0,4.0,50,0.00,,,0.00,weatherlink.com 1.10,2013-05-31 21:20:00,
2013-05-31 17:35:00,87.2,66.0,30.11,SW,229,1.0,2.0,50,0.00,,,0.00,weatherlink.com 1.10,2013-05-31 21:35:00,
2013-05-31 17:50:00,87.9,68.0,30.11,SE,139,1.0,3.0,52,0.00,,,0.00,weatherlink.com 1.10,2013-05-31 21:50:00,
2013-05-31 18:05:00,87.4,67.0,30.11,SE,131,1.0,3.0,50,0.00,,,0.00,weatherlink.com 1.10,2013-05-31 22:05:00,
2013-05-31 18:20:00,85.9,67.0,30.11,SW,235,1.0,2.0,53,0.00,,,0.00,weatherlink.com 1.10,2013-05-31 22:20:00,
2013-05-31 18:35:00,86.3,66.0,30.10,SW,231,0.0,2.0,51,0.00,,,0.00,weatherlink.com 1.10,2013-05-31 22:35:00,
2013-05-31 18:50:00,84.9,67.0,30.10,WSW,241,0.0,2.0,55,0.00,,,0.00,weatherlink.com 1.10,2013-05-31 22:50:00,
2013-05-31 19:05:00,83.0,67.0,30.10,SW,233,0.0,1.0,59,0.00,,,0.00,weatherlink.com 1.10,2013-05-31 23:05:00,
2013-05-31 19:20:00,81.6,67.0,30.10,SSW,204,0.0,1.0,62,0.00,,,0.00,weatherlink.com 1.10,2013-05-31 23:20:00,
2013-05-31 19:35:00,80.5,68.0,30.10,SSW,204,0.0,0.0,65,0.00,,,0.00,weatherlink.com 1.10,2013-05-31 23:35:00,
2013-05-31 19:50:00,79.3,68.0,30.10,SSW,204,0.0,0.0,68,0.00,,,0.00,weatherlink.com 1.10,2013-05-31 23:50:00,
2013-05-31 20:05:00,77.9,69.0,30.10,SSW,205,0.0,0.0,73,0.00,,,0.00,weatherlink.com 1.10,2013-06-01 00:05:00,
2013-05-31 20:20:00,76.4,69.0,30.10,SSW,205,0.0,0.0,77,0.00,,,0.00,weatherlink.com 1.10,2013-06-01 00:20:00,
2013-05-31 20:35:00,75.0,68.0,30.10,SSW,204,0.0,0.0,79,0.00,,,0.00,weatherlink.com 1.10,2013-06-01 00:35:00,
2013-05-31 20:50:00,73.7,69.0,30.11,SSW,204,0.0,0.0,84,0.00,,,0.00,weatherlink.com 1.10,2013-06-01 00:50:00,
2013-05-31 21:05:00,72.7,68.0,30.10,SSW,205,0.0,0.0,85,0.00,,,0.00,weatherlink.com 1.10,2013-06-01 01:05:00,
2013-05-31 21:21:00,72.0,68.0,30.11,ESE,103,0.0,1.0,86,0.00,,,0.00,weatherlink.com 1.10,2013-06-01 01:21:00,
2013-05-31 21:36:00,71.7,67.0,30.11,ESE,107,0.0,0.0,86,0.00,,,0.00,weatherlink.com 1.10,2013-06-01 01:36:00,
2013-05-31 21:52:00,71.4,67.0,30.12,ESE,107,0.0,1.0,86,0.00,,,0.00,weatherlink.com 1.10,2013-06-01 01:52:00,
2013-05-31 22:07:00,71.1,67.0,30.12,ESE,107,0.0,0.0,87,0.00,,,0.00,weatherlink.com 1.10,2013-06-01 02:07:00,
2013-05-31 22:22:00,71.0,67.0,30.12,ESE,108,0.0,0.0,88,0.00,,,0.00,weatherlink.com 1.10,2013-06-01 02:22:00,
2013-05-31 22:37:00,71.5,68.0,30.13,ESE,108,0.0,1.0,87,0.00,,,0.00,weatherlink.com 1.10,2013-06-01 02:37:00,
2013-05-31 22:52:00,71.6,68.0,30.13,ESE,107,0.0,0.0,87,0.00,,,0.00,weatherlink.com 1.10,2013-06-01 02:52:00,
2013-05-31 23:07:00,71.2,68.0,30.13,ESE,107,0.0,0.0,88,0.00,,,0.00,weatherlink.com 1.10,2013-06-01 03:07:00,
2013-05-31 23:22:00,70.5,67.0,30.13,ESE,107,0.0,0.0,88,0.00,,,0.00,weatherlink.com 1.10,2013-06-01 03:22:00,
2013-05-31 23:37:00,70.2,67.0,30.13,ESE,107,0.0,0.0,89,0.00,,,0.00,weatherlink.com 1.10,2013-06-01 03:37:00,
2013-05-31 23:52:00,69.9,67.0,30.13,ESE,110,0.0,1.0,91,0.00,,,0.00,weatherlink.com 1.10,2013-06-01 03:52:00,